Record,Date/Time,10,Freq,Rcvr,Alpha,dTdG,K1,K2,K3,K4,Tnd
     1,06/09/2019 00:04:29,11, 22.000,0, 0.995100,  -499071.65,  0.16543191E+03, -0.15504021E+01,  0.49083044E-02, -0.52730206E-05, 273.10
     2,06/09/2019 00:04:29,11, 22.234,0, 0.997080,  -458725.41,  0.95669020E+02, -0.92484013E+00,  0.30759395E-02, -0.35324078E-05, 237.68
     3,06/09/2019 00:04:29,11, 22.500,0, 0.996000,  -406187.40,  0.25660892E+03, -0.25819544E+01,  0.85485022E-02, -0.92980927E-05, 199.99
     4,06/09/2019 00:04:29,11, 23.000,0, 0.996460,  -386058.84,  0.80322340E+02, -0.69305273E+00,  0.19308656E-02, -0.17107239E-05, 164.45
     5,06/09/2019 00:04:29,11, 23.034,0, 0.997170,  -390667.51,  0.11982393E+02,  0.30545022E-01, -0.60254591E-03,  0.12232425E-05, 163.68
     6,06/09/2019 00:04:29,11, 23.500,0, 0.997550,  -368692.46,  0.99890591E+02, -0.93570264E+00,  0.29523934E-02, -0.31503182E-05, 173.13
     7,06/09/2019 00:04:29,11, 23.834,0, 0.997920,  -376527.84,  0.15890200E+03, -0.15666295E+01,  0.51366914E-02, -0.55998683E-05, 187.39
     8,06/09/2019 00:04:29,11, 24.000,0, 0.996450,  -355334.60,  0.24853953E+03, -0.25184584E+01,  0.84740808E-02, -0.94656113E-05, 196.98
     9,06/09/2019 00:04:29,11, 24.500,0, 0.994550,  -387621.08,  0.83813918E+02, -0.70324691E+00,  0.18990758E-02, -0.16230509E-05, 191.22
    10,06/09/2019 00:04:29,11, 25.000,0, 0.995590,  -365396.41,  0.21502088E+02, -0.16971927E+00,  0.46228154E-03, -0.45763980E-06, 157.87
    11,06/09/2019 00:04:29,11, 25.500,0, 0.997270,  -337460.85,  0.12798899E+03, -0.12846229E+01,  0.42697875E-02, -0.46962759E-05, 139.75
    12,06/09/2019 00:04:29,11, 26.000,0, 0.995340,  -333542.31,  0.74671634E+02, -0.62527339E+00,  0.17409355E-02, -0.16300392E-05, 172.61
    13,06/09/2019 00:04:29,11, 26.234,0, 0.993950,  -322237.97,  0.11519673E+03, -0.10091282E+01,  0.29284075E-02, -0.28221173E-05, 197.57
    14,06/09/2019 00:04:29,11, 26.500,0, 0.993920,  -357546.35, -0.45917317E+02,  0.59695900E+00, -0.23085680E-02,  0.27450808E-05, 230.58
    15,06/09/2019 00:04:29,11, 27.000,0, 0.996280,  -400616.90,  0.18200796E+03, -0.17554716E+01,  0.56489252E-02, -0.60681373E-05, 259.20
    16,06/09/2019 00:04:29,11, 27.500,0, 0.994600,  -367846.26,  0.61900985E+02, -0.37506884E+00,  0.50488044E-03,  0.18075908E-06, 232.52
    17,06/09/2019 00:04:29,11, 28.000,0, 0.994550,  -352210.37,  0.48269270E+02, -0.25583474E+00,  0.27971515E-03,  0.98354210E-07, 237.69
    18,06/09/2019 00:04:29,11, 28.500,0, 0.996090,  -360809.26,  0.24138846E+03, -0.23632637E+01,  0.77497593E-02, -0.85201012E-05, 239.09
    19,06/09/2019 00:04:29,11, 29.000,0, 0.993930,  -358196.95,  0.10568483E+03, -0.95307975E+00,  0.29148993E-02, -0.30519798E-05, 199.62
    20,06/09/2019 00:04:29,11, 29.500,0, 0.991490,  -312519.78, -0.63528261E+02,  0.61795241E+00, -0.19458129E-02,  0.19666623E-05, 107.82
    21,06/09/2019 00:04:29,11, 30.000,0, 0.993370,  -353110.93,  0.15567176E+02, -0.15747733E+00,  0.59272243E-03, -0.80965628E-06, 119.17
Record,Date/Time,30,TkBB(K),Tnd(K) Ch  22.000,R Ch  22.000,Tnd(K) Ch  22.234,R Ch  22.234,Tnd(K) Ch  22.500,R Ch  22.500,Tnd(K) Ch  23.000,R Ch  23.000,Tnd(K) Ch  23.034,R Ch  23.034,Tnd(K) Ch  23.500,R Ch  23.500,Tnd(K) Ch  23.834,R Ch  23.834,Tnd(K) Ch  24.000,R Ch  24.000,Tnd(K) Ch  24.500,R Ch  24.500,Tnd(K) Ch  25.000,R Ch  25.000,Tnd(K) Ch  25.500,R Ch  25.500,Tnd(K) Ch  26.000,R Ch  26.000,Tnd(K) Ch  26.234,R Ch  26.234,Tnd(K) Ch  26.500,R Ch  26.500,Tnd(K) Ch  27.000,R Ch  27.000,Tnd(K) Ch  27.500,R Ch  27.500,Tnd(K) Ch  28.000,R Ch  28.000,Tnd(K) Ch  28.500,R Ch  28.500,Tnd(K) Ch  29.000,R Ch  29.000,Tnd(K) Ch  29.500,R Ch  29.500,Tnd(K) Ch  30.000,R Ch  30.000
Record,Date/Time,20,TkBB(K),Tnd(K) Ch  1,R Ch  1,Tnd(K) Ch  2,R Ch  2,Tnd(K) Ch  3,R Ch  3,Tnd(K) Ch  4,R Ch  4,Tnd(K) Ch  5,R Ch  5
    22,06/09/2019 00:07:36,31,302.955, 273.466, 0.991824, 238.149, 0.995528, 200.422, 0.993508, 165.017, 0.993742, 163.989, 0.992539, 173.326, 0.993738, 187.792, 0.995703, 197.423, 1.000000, 191.724, 0.995638, 158.106, 0.992580, 140.131, 0.997475, 172.503, 0.994276, 197.754, 0.991909, 230.461, 0.994740, 259.497, 0.992830, 232.745, 0.993422, 237.926, 0.992601, 239.579, 0.995245, 200.150, 0.989207, 108.111, 0.994937, 119.422, 0.994267
    23,06/09/2019 00:10:35,31,302.867, 273.193, 0.992585, 237.875, 0.996811, 200.277, 0.993898, 164.490, 0.993704, 163.968, 0.993958, 173.351, 0.994961, 187.631, 0.993844, 197.143, 1.000000, 191.468, 0.994285, 157.906, 0.994121, 139.783, 0.998099, 172.678, 0.993716, 197.566, 0.990254, 230.256, 0.994875, 259.393, 0.992297, 232.781, 0.994514, 237.277, 0.992947, 238.985, 0.996162, 199.956, 0.993965, 107.876, 0.997626, 119.289, 0.996503
    24,06/09/2019 00:13:34,31,302.772, 272.958, 0.990487, 237.368, 0.994214, 200.207, 0.991025, 164.356, 0.992432, 163.589, 0.990694, 173.256, 0.991792, 187.320, 0.990837, 197.125, 1.000000, 191.189, 0.991334, 157.875, 0.988331, 139.927, 0.995610, 172.440, 0.990135, 197.468, 0.987558, 230.154, 0.990621, 259.361, 0.987322, 232.557, 0.991061, 237.323, 0.988532, 239.281, 0.992482, 199.764, 0.985635, 107.981, 0.995030, 119.118, 0.992318
    25,06/09/2019 00:16:33,31,302.743, 272.305, 0.991149, 237.167, 0.994137, 199.990, 0.992112, 164.285, 0.992509, 163.390, 0.992727, 172.837, 0.992845, 187.172, 0.992969, 196.643, 1.000000, 190.914, 0.994637, 157.520, 0.991330, 139.893, 0.996230, 172.216, 0.994240, 197.142, 0.991528, 230.110, 0.995692, 258.734, 0.993072, 232.248, 0.995668, 237.074, 0.993491, 239.029, 0.996619, 199.383, 0.994279, 107.949, 0.997410, 119.131, 0.997096
    26,06/09/2019 00:19:33,31,302.751, 271.551, 0.995417, 236.373, 0.998348, 199.040, 0.997986, 163.386, 0.997333, 162.562, 0.996237, 172.178, 0.997671, 186.375, 0.997348, 196.173, 1.000000, 190.538, 0.995457, 157.370, 0.996136, 139.530, 0.999035, 172.177, 0.997900, 197.142, 0.992896, 229.941, 0.997676, 258.775, 0.995874, 232.112, 0.997323, 237.141, 0.996367, 238.774, 0.996856, 199.415, 0.993999, 107.744, 0.998259, 118.970, 0.997760
    27,06/09/2019 00:22:32,31,302.745, 271.863, 0.987915, 236.812, 0.994430, 199.293, 0.993455, 163.676, 0.991201, 162.951, 0.991917, 172.403, 0.992535, 186.815, 0.991960, 196.175, 1.000000, 190.569, 0.992859, 157.388, 0.989789, 139.511, 0.995887, 172.130, 0.992564, 197.197, 0.988921, 229.644, 0.993357, 259.183, 0.989160, 232.069, 0.993366, 236.945, 0.987775, 239.067, 0.993308, 199.536, 0.985336, 107.640, 0.995352, 119.235, 0.993804
    28,06/09/2019 00:25:31,31,302.696, 271.732, 0.989099, 235.948, 0.993558, 199.134, 0.991404, 163.503, 0.991487, 162.821, 0.992039, 172.139, 0.992819, 186.704, 0.992023, 196.085, 1.000000, 190.464, 0.991293, 157.347, 0.990387, 139.532, 0.996441, 171.992, 0.992414, 196.779, 0.990332, 230.046, 0.993030, 259.057, 0.989244, 232.425, 0.994757, 237.369, 0.990824, 238.756, 0.996405, 199.729, 0.991343, 107.874, 0.996602, 119.261, 0.996818
    29,06/09/2019 00:28:31,31,302.682, 272.378, 0.992313, 236.864, 0.995627, 199.885, 0.993585, 164.053, 0.993944, 163.278, 0.992535, 172.716, 0.995296, 187.465, 0.994731, 196.576, 1.000000, 190.676, 0.992997, 157.858, 0.991590, 139.679, 0.997253, 172.136, 0.993455, 197.390, 0.989637, 230.459, 0.994055, 259.470, 0.989902, 232.450, 0.993399, 237.799, 0.993985, 239.176, 0.996743, 199.747, 0.993914, 107.872, 0.997822, 119.433, 0.996665
    30,06/09/2019 00:31:31,31,302.666, 271.062, 0.991883, 235.479, 0.994739, 198.766, 0.994290, 163.169, 0.991818, 162.559, 0.992475, 171.970, 0.994785, 186.518, 0.992952, 196.055, 1.000000, 190.426, 0.994446, 157.504, 0.991874, 139.445, 0.997229, 171.856, 0.994111, 196.964, 0.990258, 229.976, 0.995089, 259.054, 0.991837, 232.103, 0.994394, 237.101, 0.991223, 238.991, 0.995693, 199.524, 0.993205, 107.670, 0.996907, 119.119, 0.995365
    31,06/09/2019 00:34:30,31,302.679, 271.452, 0.987761, 236.193, 0.990977, 199.186, 0.989479, 163.671, 0.986913, 162.840, 0.988664, 172.119, 0.989288, 187.073, 0.989012, 196.461, 1.000000, 190.583, 0.990162, 157.480, 0.986935, 139.366, 0.993653, 172.101, 0.988698, 197.139, 0.985867, 230.621, 0.989731, 258.756, 0.987356, 232.140, 0.988805, 237.153, 0.987459, 239.221, 0.991259, 199.717, 0.987479, 107.951, 0.992091, 119.183, 0.992587
    32,06/09/2019 00:37:30,31,302.622, 272.635, 0.995142, 237.006, 0.997494, 199.602, 0.996234, 164.163, 0.996337, 163.470, 0.996431, 172.601, 0.997220, 187.253, 0.997931, 196.851, 1.000000, 191.118, 0.998196, 157.895, 0.994867, 139.792, 0.999201, 172.294, 0.997836, 197.654, 0.995982, 230.161, 0.998517, 259.491, 0.995039, 232.353, 0.995919, 237.377, 0.996336, 239.072, 0.997104, 199.919, 0.995514, 107.879, 0.999095, 119.291, 0.998727
    33,06/09/2019 00:40:29,31,302.536, 272.284, 0.993647, 237.170, 0.996988, 199.460, 0.995794, 164.123, 0.995560, 163.322, 0.994969, 172.719, 0.996758, 187.202, 0.996737, 196.712, 1.000000, 190.900, 0.993960, 157.874, 0.993823, 139.766, 0.998226, 172.152, 0.995152, 197.735, 0.990049, 230.698, 0.995354, 259.306, 0.993856, 232.256, 0.996267, 237.599, 0.992234, 239.198, 0.996924, 199.738, 0.993095, 108.039, 0.999266, 119.320, 0.996966
    34,06/09/2019 00:43:29,31,302.461, 274.444, 0.991014, 239.246, 0.994908, 201.209, 0.994612, 165.250, 0.992672, 164.686, 0.990724, 173.865, 0.994242, 188.300, 0.994534, 198.079, 1.000000, 191.979, 0.993725, 158.725, 0.990983, 140.382, 0.997785, 173.045, 0.993945, 198.271, 0.990515, 231.148, 0.993351, 260.316, 0.990072, 233.586, 0.993730, 238.290, 0.992018, 239.816, 0.995522, 200.395, 0.992082, 108.287, 0.997225, 119.486, 0.996614
    35,06/09/2019 00:46:29,31,302.529, 274.665, 0.992597, 238.966, 0.996023, 201.134, 0.993982, 165.474, 0.994832, 164.578, 0.992844, 173.958, 0.994169, 188.434, 0.995608, 198.122, 1.000000, 191.957, 0.993455, 158.640, 0.991139, 140.417, 0.997548, 173.384, 0.995104, 198.263, 0.992233, 231.349, 0.994644, 260.053, 0.992435, 233.230, 0.995440, 237.874, 0.994107, 239.448, 0.997185, 200.241, 0.993521, 108.242, 0.998648, 119.679, 0.998158
    36,06/09/2019 00:49:29,31,302.578, 274.183, 0.992404, 238.325, 0.995966, 201.107, 0.993606, 164.976, 0.992941, 164.253, 0.992634, 173.757, 0.994229, 188.305, 0.994896, 197.399, 1.000000, 191.725, 0.994758, 158.374, 0.992499, 140.171, 0.997502, 172.713, 0.993726, 197.920, 0.991800, 231.130, 0.995447, 259.732, 0.992442, 233.107, 0.994371, 237.109, 0.992192, 239.540, 0.996815, 199.929, 0.993120, 107.977, 0.998202, 119.206, 0.996463
    37,06/09/2019 00:52:28,31,302.621, 273.420, 0.992182, 238.057, 0.996595, 200.412, 0.995228, 164.568, 0.994316, 164.096, 0.994304, 173.177, 0.996051, 187.592, 0.996804, 197.521, 1.000000, 191.267, 0.996558, 158.046, 0.995391, 140.006, 0.999015, 172.626, 0.995957, 197.562, 0.992790, 230.651, 0.996658, 259.210, 0.993905, 232.750, 0.996091, 237.552, 0.994968, 239.197, 0.997728, 199.776, 0.996005, 107.968, 0.999092, 119.199, 0.997739
    38,06/09/2019 00:55:27,31,302.572, 273.019, 0.994140, 237.782, 0.997259, 200.635, 0.995256, 164.836, 0.993786, 163.779, 0.993675, 173.294, 0.996413, 187.943, 0.996649, 197.036, 1.000000, 191.218, 0.995030, 158.060, 0.992790, 140.074, 0.998997, 172.891, 0.996555, 197.519, 0.992702, 230.233, 0.996768, 259.205, 0.993935, 232.630, 0.996308, 237.499, 0.992944, 239.147, 0.996521, 199.732, 0.991994, 108.195, 0.998389, 119.573, 0.996896
    39,06/09/2019 00:58:26,31,302.518, 273.266, 0.990518, 237.642, 0.994104, 200.161, 0.992251, 164.592, 0.991842, 163.995, 0.990839, 173.252, 0.993704, 187.764, 0.993218, 196.986, 1.000000, 191.002, 0.994765, 157.986, 0.991849, 139.833, 0.997891, 172.210, 0.993836, 197.657, 0.991505, 230.251, 0.993796, 259.244, 0.991331, 232.451, 0.994546, 237.361, 0.991588, 239.046, 0.995694, 199.702, 0.993104, 107.938, 0.997168, 119.436, 0.993899
    40,06/09/2019 01:01:26,31,302.567, 272.756, 0.991125, 237.596, 0.994590, 200.515, 0.995065, 164.501, 0.993193, 163.934, 0.991936, 172.898, 0.994883, 187.574, 0.995179, 197.198, 1.000000, 191.126, 0.992457, 157.887, 0.993015, 139.929, 0.995754, 172.594, 0.994773, 197.486, 0.990854, 230.264, 0.994763, 259.712, 0.992671, 233.001, 0.996583, 237.319, 0.994008, 239.189, 0.996957, 199.851, 0.995703, 107.880, 0.997501, 119.316, 0.998538
    41,06/09/2019 01:04:26,31,302.650, 273.530, 0.994758, 237.973, 0.999033, 200.396, 0.998983, 164.716, 0.997994, 164.219, 0.996912, 173.666, 0.998129, 188.061, 0.998741, 197.242, 1.000000, 191.315, 0.995493, 158.080, 0.998308, 139.974, 0.998752, 172.507, 0.998833, 197.975, 0.995382, 230.583, 0.998764, 259.680, 0.996027, 232.813, 0.997922, 237.707, 0.994547, 239.296, 0.999189, 199.860, 0.995952, 108.134, 0.999593, 119.388, 0.999204
    42,06/09/2019 01:07:25,31,302.779, 273.281, 0.995839, 237.903, 0.999162, 200.537, 0.998875, 164.714, 0.996786, 163.802, 0.996834, 173.394, 0.998684, 187.681, 0.998064, 197.027, 1.000000, 191.464, 0.996175, 157.774, 0.997222, 139.683, 0.999185, 172.591, 0.998794, 197.515, 0.996327, 230.882, 0.997302, 259.124, 0.997883, 232.376, 0.999038, 237.474, 0.996547, 239.405, 0.999056, 199.791, 0.997361, 107.797, 0.998499, 119.271, 0.999001
    43,06/09/2019 01:10:24,31,302.919, 273.655, 0.994427, 238.060, 0.997087, 200.370, 0.996781, 164.845, 0.995740, 163.759, 0.995902, 173.230, 0.997135, 187.290, 0.996974, 196.888, 1.000000, 191.164, 0.995371, 158.017, 0.995171, 139.923, 0.999150, 172.496, 0.996350, 197.773, 0.994966, 230.783, 0.997853, 259.496, 0.992277, 232.720, 0.995816, 237.325, 0.994764, 239.098, 0.998032, 199.743, 0.994768, 107.916, 0.998233, 119.195, 0.997675
    44,06/09/2019 01:13:23,31,303.016, 274.915, 0.998054, 239.589, 0.999711, 201.615, 0.999081, 165.321, 0.998627, 164.609, 0.998563, 174.231, 0.999607, 188.628, 0.999620, 197.863, 1.000000, 192.124, 0.998233, 158.492, 0.999030, 140.410, 0.999291, 172.911, 0.999636, 198.042, 0.997207, 230.950, 0.999494, 260.223, 0.997315, 232.955, 0.999403, 237.798, 0.997321, 239.507, 0.999578, 200.237, 0.998080, 108.228, 0.999844, 119.582, 0.999499
    45,06/09/2019 01:16:23,31,303.039, 274.148, 0.998484, 238.204, 0.999840, 200.678, 0.999470, 164.796, 0.999601, 164.111, 0.999408, 173.356, 0.999825, 188.019, 0.999895, 197.394, 1.000000, 191.878, 0.998800, 158.397, 0.998716, 140.020, 0.999793, 172.752, 0.999308, 197.932, 0.997572, 230.788, 0.999708, 259.847, 0.997432, 232.870, 0.998659, 237.770, 0.997013, 239.548, 0.999060, 200.322, 0.997041, 107.977, 0.999545, 119.305, 0.999174
    46,06/09/2019 01:19:22,31,303.054, 273.725, 0.997569, 237.904, 0.999385, 200.948, 0.998890, 164.867, 0.999017, 164.075, 0.998176, 173.251, 0.999279, 188.112, 0.999257, 197.756, 1.000000, 191.297, 0.998478, 158.096, 0.998665, 140.009, 0.999717, 172.774, 0.999295, 197.829, 0.995503, 230.857, 0.999179, 259.737, 0.996747, 233.036, 0.998013, 237.630, 0.995593, 239.475, 0.998637, 199.819, 0.995112, 108.125, 0.999333, 119.537, 0.997855
    47,06/09/2019 01:22:22,31,303.163, 273.527, 0.995367, 237.456, 0.998992, 200.459, 0.998305, 164.769, 0.996831, 164.258, 0.996938, 173.468, 0.998261, 187.734, 0.998803, 197.413, 1.000000, 191.699, 0.995945, 158.229, 0.997523, 140.282, 0.998083, 172.813, 0.998426, 197.783, 0.995678, 230.791, 0.997534, 259.673, 0.996870, 232.800, 0.996724, 237.688, 0.995849, 239.442, 0.998619, 200.178, 0.994842, 108.096, 0.998583, 119.452, 0.997740
    48,06/09/2019 01:25:21,31,303.168, 274.025, 0.993829, 238.330, 0.998115, 200.906, 0.997053, 164.867, 0.995580, 164.433, 0.996332, 173.901, 0.997584, 188.406, 0.998147, 197.520, 1.000000, 191.687, 0.996403, 158.424, 0.995397, 140.156, 0.998572, 173.300, 0.996525, 197.963, 0.993510, 230.611, 0.996487, 259.340, 0.993800, 233.118, 0.995424, 238.105, 0.991905, 240.059, 0.997649, 200.142, 0.994042, 108.109, 0.996796, 119.567, 0.996659
    49,06/09/2019 01:28:21,31,303.257, 272.775, 0.994785, 237.464, 0.998468, 200.123, 0.997986, 164.523, 0.997505, 163.868, 0.997081, 173.237, 0.998351, 187.416, 0.999093, 197.055, 1.000000, 191.189, 0.996496, 158.104, 0.997679, 139.935, 0.999113, 172.668, 0.998870, 197.501, 0.995315, 230.358, 0.998063, 258.791, 0.994935, 232.359, 0.997503, 237.337, 0.996806, 238.791, 0.998337, 199.825, 0.995865, 108.011, 0.999137, 119.168, 0.999143
    50,06/09/2019 01:31:20,31,303.358, 273.456, 0.995894, 238.153, 0.999330, 200.742, 0.999112, 164.820, 0.998279, 164.054, 0.998297, 173.569, 0.999226, 187.732, 0.999291, 197.350, 1.000000, 191.633, 0.996890, 158.217, 0.998773, 140.061, 0.998848, 172.373, 0.999279, 197.481, 0.994006, 230.529, 0.998317, 259.493, 0.996613, 232.695, 0.998438, 237.651, 0.996866, 239.193, 0.998876, 199.851, 0.996087, 108.084, 0.999440, 119.225, 0.998815
    51,06/09/2019 01:34:19,31,303.423, 272.894, 0.998400, 237.856, 0.999905, 200.107, 0.999891, 164.247, 0.999246, 163.618, 0.999112, 173.319, 0.999941, 187.301, 0.999819, 196.939, 1.000000, 190.803, 0.997590, 157.880, 0.999382, 139.836, 0.998875, 172.465, 0.999836, 197.529, 0.997489, 230.244, 0.999385, 259.299, 0.998941, 232.777, 0.999572, 237.407, 0.998378, 239.295, 0.999480, 199.641, 0.997019, 107.873, 0.999194, 119.444, 0.999159
    52,06/09/2019 01:37:18,31,303.392, 273.450, 0.996895, 237.495, 0.999341, 200.175, 0.999759, 164.961, 0.998695, 163.794, 0.998644, 172.985, 0.999523, 187.841, 0.999254, 197.157, 1.000000, 191.258, 0.996554, 157.906, 0.999693, 140.029, 0.998590, 172.425, 0.999518, 197.769, 0.997949, 230.701, 0.999580, 259.601, 0.998779, 232.272, 0.999404, 237.471, 0.997812, 239.497, 0.999705, 199.921, 0.997670, 107.880, 0.999944, 119.395, 0.998924
    53,06/09/2019 01:40:18,31,303.296, 273.796, 0.997389, 238.458, 0.999043, 200.735, 0.999444, 164.978, 0.998353, 164.214, 0.998758, 173.583, 0.998947, 187.856, 0.999090, 197.417, 1.000000, 191.501, 0.996068, 158.344, 0.999261, 140.057, 0.997920, 172.720, 0.999532, 197.676, 0.997052, 230.857, 0.999017, 259.609, 0.998386, 232.555, 0.999627, 237.599, 0.998540, 239.408, 0.999823, 200.123, 0.999304, 108.180, 0.998979, 119.415, 0.999959
    54,06/09/2019 01:43:17,31,303.214, 273.718, 0.998296, 238.133, 0.999328, 200.500, 0.999822, 165.200, 0.998695, 164.043, 0.998937, 173.705, 0.999230, 187.962, 0.999268, 197.703, 1.000000, 191.452, 0.997329, 158.018, 0.999303, 140.011, 0.997915, 172.794, 0.999605, 197.647, 0.996794, 230.797, 0.998969, 259.504, 0.999128, 232.879, 0.999847, 237.734, 0.998694, 239.394, 0.998368, 200.247, 0.999239, 108.043, 0.999362, 119.317, 0.999809
    55,06/09/2019 01:46:17,31,303.279, 273.830, 0.997241, 237.660, 0.998746, 200.389, 0.998816, 164.620, 0.996603, 164.105, 0.997632, 173.403, 0.998210, 187.633, 0.997783, 197.268, 1.000000, 191.233, 0.994721, 158.026, 0.999436, 140.062, 0.996745, 172.440, 0.998646, 197.685, 0.996220, 230.812, 0.996366, 259.169, 0.998308, 232.892, 0.996698, 237.693, 0.996424, 239.676, 0.998111, 199.830, 0.996256, 107.973, 0.998031, 119.304, 0.999177
    56,06/09/2019 01:49:16,31,303.374, 272.544, 0.995442, 237.218, 0.998490, 199.894, 0.998649, 164.181, 0.997616, 163.321, 0.998278, 172.959, 0.997971, 187.399, 0.998257, 196.839, 1.000000, 190.909, 0.994887, 157.701, 0.999017, 139.921, 0.996840, 172.364, 0.997637, 197.530, 0.995092, 230.323, 0.997651, 258.824, 0.997541, 232.692, 0.998744, 237.547, 0.997028, 239.363, 0.997802, 199.589, 0.995920, 107.969, 0.998238, 119.475, 0.998582
    57,06/09/2019 01:52:16,31,303.508, 271.096, 0.996390, 235.783, 0.998388, 198.814, 0.998292, 163.269, 0.996107, 162.173, 0.996704, 171.998, 0.997645, 186.227, 0.996667, 196.261, 1.000000, 190.419, 0.994054, 157.283, 0.997738, 139.389, 0.997126, 171.787, 0.997089, 196.884, 0.996142, 229.549, 0.996758, 258.431, 0.997487, 231.916, 0.997357, 236.639, 0.997632, 238.301, 0.998701, 199.358, 0.996938, 107.794, 0.998076, 119.038, 0.999754
    58,06/09/2019 01:55:16,31,303.607, 270.951, 0.996678, 236.219, 0.998933, 198.816, 0.998823, 163.423, 0.997269, 162.608, 0.998103, 171.998, 0.998407, 186.248, 0.998921, 196.017, 1.000000, 190.384, 0.996670, 157.488, 0.999491, 139.528, 0.998695, 172.053, 0.999281, 197.033, 0.995924, 229.619, 0.998447, 259.014, 0.997785, 232.090, 0.998629, 236.997, 0.996074, 238.894, 0.999370, 199.665, 0.997168, 107.610, 0.999675, 119.124, 0.999521
    59,06/09/2019 01:58:15,31,303.598, 271.768, 0.996767, 236.181, 0.998594, 199.346, 0.998983, 163.587, 0.997478, 163.138, 0.997998, 172.227, 0.998036, 186.368, 0.998574, 196.229, 1.000000, 190.451, 0.996459, 157.391, 0.999195, 139.538, 0.998401, 172.164, 0.999113, 197.175, 0.995932, 230.009, 0.998773, 258.536, 0.998082, 232.121, 0.999572, 237.022, 0.997822, 238.687, 0.999857, 199.399, 0.997656, 107.677, 0.999846, 119.056, 0.999730
    60,06/09/2019 02:01:14,31,303.539, 272.768, 0.997154, 237.137, 0.998585, 199.487, 0.998991, 163.844, 0.998394, 163.633, 0.997933, 172.499, 0.998362, 187.152, 0.998287, 197.019, 1.000000, 191.022, 0.996980, 157.993, 0.999492, 139.485, 0.997497, 172.520, 0.998877, 197.282, 0.997811, 230.129, 0.998691, 259.098, 0.998290, 232.350, 0.999003, 237.403, 0.998894, 239.128, 0.998811, 199.856, 0.997447, 107.962, 0.997305, 119.379, 0.998822
    61,06/09/2019 02:04:14,31,303.517, 272.269, 0.997778, 236.624, 0.999945, 199.564, 0.999861, 163.912, 0.998699, 163.309, 0.999401, 172.535, 0.999856, 186.864, 0.999892, 196.634, 1.000000, 190.861, 0.998079, 157.992, 0.999591, 139.648, 0.999067, 172.222, 0.999751, 197.264, 0.997584, 230.337, 0.999301, 259.147, 0.997957, 232.656, 0.999446, 237.604, 0.998103, 238.868, 0.999856, 199.560, 0.998161, 107.965, 0.999954, 119.312, 0.999811
    62,06/09/2019 02:07:14,31,303.462, 271.737, 0.994307, 236.225, 0.997383, 199.291, 0.997563, 163.888, 0.995536, 162.933, 0.995875, 172.283, 0.996126, 186.610, 0.995839, 196.476, 1.000000, 190.832, 0.991838, 157.753, 0.997498, 139.561, 0.993557, 172.191, 0.996689, 197.146, 0.994073, 230.035, 0.995419, 258.919, 0.997550, 232.139, 0.997521, 236.890, 0.997120, 238.769, 0.998398, 199.433, 0.998655, 107.689, 0.999068, 119.106, 0.999518
    63,06/09/2019 02:10:14,31,303.413, 272.745, 0.995165, 237.510, 0.996364, 200.140, 0.995976, 164.423, 0.993782, 163.857, 0.995094, 172.895, 0.994909, 187.223, 0.995331, 197.240, 1.000000, 191.170, 0.991022, 157.824, 0.997149, 139.802, 0.992616, 172.309, 0.997308, 197.302, 0.993938, 230.126, 0.995609, 258.978, 0.997974, 232.501, 0.997777, 237.295, 0.997413, 239.115, 0.998539, 199.711, 0.997621, 107.818, 0.996990, 119.049, 0.998890
    64,06/09/2019 02:13:14,31,303.308, 272.726, 0.994103, 236.959, 0.998516, 199.792, 0.998011, 164.363, 0.996011, 163.841, 0.996680, 173.130, 0.997927, 187.263, 0.997884, 196.713, 1.000000, 191.223, 0.993955, 157.520, 0.997665, 139.792, 0.996695, 172.419, 0.997049, 197.522, 0.994256, 230.381, 0.997404, 259.231, 0.996263, 232.595, 0.997889, 237.457, 0.994866, 238.969, 0.997312, 199.731, 0.994494, 107.778, 0.998233, 119.373, 0.997668
    65,06/09/2019 02:16:16,31,303.154, 271.951, 0.996361, 236.262, 0.997211, 199.107, 0.997998, 163.643, 0.996631, 163.099, 0.997069, 172.328, 0.996171, 186.498, 0.997181, 196.380, 1.000000, 190.668, 0.993950, 157.770, 0.999372, 139.599, 0.994264, 172.120, 0.997949, 197.265, 0.995622, 230.186, 0.996612, 258.995, 0.998954, 232.193, 0.998492, 237.340, 0.996781, 239.087, 0.998754, 199.823, 0.997734, 107.751, 0.998369, 119.233, 0.999538
    66,06/09/2019 02:19:19,31,302.967, 272.285, 0.995743, 236.520, 0.998844, 199.757, 0.999206, 163.951, 0.997458, 163.284, 0.997495, 172.565, 0.998266, 186.815, 0.998306, 196.236, 1.000000, 190.706, 0.995861, 157.625, 0.999321, 139.748, 0.999173, 172.548, 0.998492, 197.274, 0.994842, 230.092, 0.998325, 258.493, 0.997522, 232.262, 0.999056, 237.214, 0.996705, 239.118, 0.999064, 199.794, 0.995584, 107.772, 0.998595, 119.110, 0.998355
    67,06/09/2019 02:22:18,31,302.783, 270.873, 0.995183, 235.450, 0.997474, 198.375, 0.998188, 163.376, 0.996389, 162.713, 0.996521, 171.659, 0.996997, 186.434, 0.997248, 195.781, 1.000000, 190.201, 0.993521, 157.270, 0.998470, 139.243, 0.995679, 172.011, 0.998346, 196.829, 0.993305, 229.774, 0.996635, 258.466, 0.997376, 232.103, 0.998164, 236.765, 0.996313, 238.756, 0.998751, 199.253, 0.997171, 107.726, 0.998562, 119.074, 0.999417